Voltar ao catálogo

CZ-4C DEB

AtivoLEO
NORAD 39015·DEBRIS·🇨🇳 China

Lançado Nov 25, 2012 de Jiuquan Satellite Launch Center

Loading…

Próximas Passagens (próximas 24 horas)

TLE

AtualizadoSource: Space-Track

Época: Sep 14, 2026, 22:28 UTC

1 39015U 12066E   26257.93654065 -.00000004  00000-0  80254-4 0  9991
2 39015  63.3521  79.8059 0449082  28.5619 333.9235 13.45079080677696

Acompanhe CZ-4C DEB em tempo real com AllMySat

Download on the App Store